Showing default

TIANQI 21, 57792

Orbit data source: Space-Track

TIANQI 21, 57792 is a payload satellite owned by Guodian Gaokeji (CN) in LEO that was launched on Tue, 05 Sep 2023 UTC via a GUSHENXING 1 launch vehicle from the Yellow Sea Launch Area, China (YSLA). Payload-class satellites include a variety of spacecraft equipped with specific instruments for various scientific and technological missions. These include communications satellites like Starlink; space stations such as the ISS; scientific satellites like the Hubble; Earth observation satellites from companies like Planet Labs, Umbra, and HawkEye 360; GPS; miniature CubeSats for education and research; and military/defense satellites.

Loading next visibility...
Identifier
57792, 2023-135A
Orbit
LEO
Country
Flag of CNCN / PRC
Related business
Manufacturer
Shanghai ASES
Mission
Operational Commercial Communications
Bus & Motor
STARLIGHTB, Unknown motor
Mass
40 kg wet, ~40 kg dry
Launch date (UTC)
2023-09-05 (3 years ago)
Launch vehicle
GUSHENXING 1
Launch site
Yellow Sea Launch Area, China (YSLA)
Object type
Payload
Rocket body
Debris
Shape & HBR
Box, 0.3 m
Radar Cross Section
0.195 m², Medium (>0.1 m² and < 1m²)

Expand to show TLE details & history
Last TLE update: 2 days ago

TLE from 2 days ago
0 TIANQI 21
1 57792U 23135A   26171.43058392  .00000137  00000-0  13021-3 0  9996
2 57792  49.9708 138.6710 0013708 269.5090  90.4251 14.23121860145093
Epoch: 2026-06-20T10:20Z
TLE epoch observation values (Epoch: 2026-06-20T10:20:02.450Z)
Latitude
-0.00007°
Longitude
75.01542°
Altitude
815.427 km
Speed
7.447 km/s
True Right ascension
09h 14m 41s
True Declination
0° 00' 00"
Sunlit
Object was in daylight at epoch
Visualization orbit readout
Latitude
Unknown
Longitude
Unknown
Altitude
Unknown
Speed
Unknown
Apparent Right ascension
Unknown
Apparent Declination
Unknown
Sunlit
N/A
Visualization observer readout
Local Sidereal Time
21:23:55
Azimuth
Unknown
Elevation
Unknown
Doppler factor
Unknown
Orbital elements
Apogee altitude
825.418 km
Perigee altitude
805.695 km
Semi-major axis
7,193.694 km
Eccentricity
0.00137
Inclination
49.9708°
RAAN
138.671°
Arg. of periapsis
269.509°
True anomaly
90.58218°
Mean anomaly
90.4251°
Eccentric anomaly
90.50364°
Mean motion
3.55726 °/min
Orbital period
101.2 mins
BSTAR
0.00013021
Loading maneuver chart data...
Computing Atmospheric mass density...
Loading historical data...
Loading historical data...
Loading historical data...
Loading historical data...
Loading historical data...
Loading historical data...
Loading historical data...
Other satellites on launch #135 in the year 2023 (2023-09-05 UTC)

Documentation

Showing up to 5 results
|